Vertical_Velocity
-4 -3 -4 -4 -3 -3 -2 -2 -3 -3 -3 -3 -3 -3 -3 -2 -2 -3 -3 -3 -3 -3 -3 -3 -2 -2 -2 -2 -2 -2 -2 -1 -0 0 1 2 2 2 3 4 4 5 5 4 4 3 2 1 0 -1 -2 -2 -2 -2 -2 -2 -0 2 4 5 4 2 -0 -2 -2 -2 -2 -2 -2
-3 -2 -2 -2 -2 -2 -1 -1 -1 -2 -2 -2 -2 -2 -2 -2 -1 -1 -1 -1 -2 -2 -2 -3 -3 -2 -2 -3 -2 -2 -2 -1 0 2 3 4 3 4 4 4 4 5 5 5 5 4 4 2 1 -0 -2 -3 -3 -2 -2 -2 1 3 5 6 4 1 -0 -1 -1 -2 -2 -3 -3
-3 -2 -1 -0 -1 -1 -1 -1 -0 -0 -1 -1 -1 -1 -1 -1 -0 -0 -0 -1 -2 -2 -3 -3 -4 -3 -3 -3 -3 -2 -1 0 2 3 4 5 5 5 4 4 4 5 5 5 5 5 4 3 2 1 -1 -3 -3 -3 -3 -3 1 4 6 6 3 1 0 0 -0 -1 -2 -3 -3
-2 -2 -1 -1 -1 -1 -1 -0 -0 -0 -0 -0 -0 -1 -1 -1 -1 -1 -1 -2 -3 -4 -4 -4 -5 -5 -4 -3 -2 -1 1 2 4 5 5 5 5 5 5 4 5 4 4 5 5 5 4 4 2 1 -1 -3 -3 -4 -4 -3 1 5 7 6 3 1 1 0 -0 -1 -1 -1 -2
-1 -1 -0 -0 -0 -0 -0 -0 -0 -1 -1 -1 -1 -2 -3 -3 -3 -4 -4 -4 -4 -5 -5 -5 -4 -4 -3 -1 0 2 3 4 5 5 5 4 4 4 4 4 4 3 4 4 5 5 4 4 3 1 -1 -2 -2 -3 -4 -3 2 5 6 5 2 1 1 0 -0 -0 0 -0 -1
-2 -2 -1 0 0 -0 -1 -1 -1 -2 -2 -3 -3 -4 -4 -4 -4 -4 -5 -4 -4 -4 -3 -3 -2 -2 -1 1 3 5 6 6 5 4 4 2 2 2 3 2 2 2 2 3 4 4 4 4 3 1 -1 -1 -2 -4 -4 -3 2 5 6 4 2 1 1 1 1 1 1 0 -1
-2 -2 -2 -1 -1 -1 -2 -3 -3 -3 -4 -4 -4 -4 -4 -4 -3 -3 -3 -2 -2 -2 -1 -0 0 1 1 3 4 5 6 5 4 3 2 2 1 1 2 1 1 1 1 1 2 2 2 3 2 1 -1 -1 -2 -4 -5 -3 2 5 5 4 1 1 1 1 2 2 1 0 -1
-1 -1 -1 -2 -3 -3 -4 -4 -4 -4 -4 -4 -4 -3 -3 -2 -2 -1 -1 -1 -1 -0 0 1 1 2 4 5 5 5 4 4 2 1 1 1 1 1 1 1 1 1 0 0 1 1 1 2 2 1 -0 -1 -2 -4 -5 -2 2 4 4 3 1 1 1 2 2 2 1 1 -0
-2 -2 -2 -3 -4 -4 -4 -5 -4 -4 -3 -2 -1 -1 -0 -0 -0 -0 -0 -0 -0 0 0 1 1 2 4 5 5 4 3 2 1 1 0 0 0 0 0 1 1 0 0 1 1 1 1 1 1 0 -0 -0 -2 -4 -4 -1 1 3 3 3 2 1 1 2 2 2 2 1 0
-4 -4 -5 -5 -5 -4 -4 -3 -2 -1 -0 0 0 1 1 1 1 1 0 0 -0 -1 -1 -0 1 2 3 4 3 2 1 0 0 0 0 0 0 0 0 0 0 1 1 1 1 1 1 1 1 1 0 -0 -1 -2 -3 -1 -0 1 2 3 3 2 1 1 2 2 2 2 1
-4 -5 -5 -5 -4 -3 -2 -1 -0 0 1 1 1 1 1 1 1 0 -0 -1 -2 -2 -2 -1 0 1 2 2 1 1 -0 -1 -1 -1 -0 -0 0 0 0 0 0 1 1 1 2 2 2 2 2 2 1 -0 -1 -2 -2 -3 -1 1 3 4 4 2 1 0 1 2 3 2 0
-5 -5 -5 -3 -2 -1 -0 0 1 1 1 1 1 1 1 0 0 -1 -2 -3 -3 -2 -2 -1 -1 -0 -1 -1 -1 -1 -2 -2 -2 -2 -1 -1 -1 -0 -0 0 0 1 1 1 2 3 3 4 4 4 3 1 -1 -2 -3 -3 -1 1 4 4 3 2 0 -1 0 2 3 2 0
-5 -4 -4 -3 -1 -0 0 1 1 0 0 0 0 0 -0 -1 -1 -2 -3 -3 -4 -4 -4 -3 -2 -2 -2 -3 -3 -3 -3 -3 -3 -3 -2 -2 -2 -1 -1 -0 0 1 1 2 2 4 5 6 7 6 5 1 -2 -3 -3 -2 -0 2 4 3 2 0 -1 -1 1 2 3 2 1
-4 -3 -2 -2 -1 -0 -0 0 0 -0 -0 -0 -0 -1 -1 -2 -3 -3 -3 -3 -4 -4 -4 -4 -3 -2 -3 -3 -4 -4 -5 -5 -4 -3 -3 -2 -2 -1 -1 -0 0 1 2 2 3 5 7 8 8 7 5 1 -2 -3 -2 -1 1 2 3 2 0 -0 -0 0 2 4 4 3 1
-3 -2 -1 -1 -1 -1 -0 -0 -0 -0 -1 -1 -2 -2 -2 -3 -4 -4 -4 -4 -4 -4 -4 -4 -3 -3 -3 -4 -4 -5 -6 -5 -5 -4 -3 -2 -1 -1 -1 -0 1 1 2 3 5 6 8 10 9 7 4 1 -1 -2 -1 0 2 2 2 1 0 0 1 2 4 5 4 3 1
-2 -2 -2 -2 -2 -1 -1 -0 -1 -1 -2 -3 -3 -3 -4 -4 -4 -4 -5 -5 -5 -4 -4 -3 -3 -3 -3 -4 -5 -5 -5 -4 -4 -4 -3 -2 -1 -1 -0 0 1 2 3 4 6 8 9 11 10 8 4 0 -2 -2 -1 1 2 2 2 1 1 2 3 4 5 4 3 1 -0
-2 -2 -2 -2 -1 -1 -1 -1 -2 -2 -3 -4 -4 -4 -4 -4 -4 -5 -5 -4 -4 -4 -4 -3 -3 -4 -4 -5 -5 -5 -4 -3 -3 -3 -3 -2 -1 -1 -0 1 2 3 4 5 7 8 9 11 11 8 5 -0 -3 -3 -1 1 2 3 3 3 3 4 4 5 5 4 2 0 -0
-3 -2 -2 -2 -1 -1 -1 -2 -3 -4 -4 -4 -5 -4 -4 -4 -4 -4 -4 -4 -4 -4 -4 -4 -4 -5 -5 -6 -5 -4 -3 -3 -3 -3 -3 -2 -2 -1 -0 1 2 3 4 5 6 8 10 12 11 9 5 0 -4 -5 -2 2 3 4 4 4 5 5 5 5 5 4 2 0 0
-3 -3 -3 -2 -2 -2 -2 -3 -4 -4 -4 -4 -4 -4 -4 -4 -3 -4 -4 -5 -5 -4 -4 -4 -4 -5 -6 -5 -4 -3 -2 -3 -3 -3 -3 -3 -2 -1 -0 1 2 3 4 5 7 9 10 10 8 7 5 -0 -5 -5 -2 2 4 5 5 5 5 5 6 6 5 3 1 -0 0
-3 -3 -3 -2 -2 -3 -4 -4 -4 -4 -4 -3 -4 -4 -3 -3 -3 -4 -4 -5 -5 -5 -5 -4 -4 -4 -4 -4 -3 -2 -2 -2 -3 -3 -3 -3 -2 -1 0 2 2 3 4 6 8 8 7 5 5 4 3 -1 -5 -5 -2 1 3 4 5 6 6 6 6 5 4 2 0 0 1
-3 -3 -3 -3 -4 -4 -5 -4 -4 -3 -3 -3 -3 -2 -2 -2 -3 -4 -4 -4 -5 -5 -5 -4 -4 -4 -3 -3 -2 -2 -2 -3 -4 -4 -3 -2 -1 -0 1 2 2 2 4 6 6 5 3 3 4 3 1 -2 -5 -4 -2 1 3 4 5 5 5 5 4 4 3 2 1 1 1
-4 -3 -3 -4 -5 -5 -4 -4 -3 -3 -3 -2 -2 -1 -1 -2 -3 -4 -5 -6 -6 -5 -5 -4 -4 -3 -3 -2 -2 -2 -3 -3 -4 -4 -3 -2 -0 1 1 1 0 1 2 4 2 1 1 2 3 2 0 -2 -4 -3 -1 1 3 4 4 3 3 3 4 4 3 3 2 1 1
-4 -4 -4 -4 -5 -5 -4 -4 -3 -2 -2 -2 -1 -1 -1 -2 -3 -4 -5 -6 -6 -5 -4 -4 -3 -2 -2 -1 -1 -2 -2 -3 -3 -4 -4 -3 -1 1 1 0 -1 -2 -2 -2 -3 -4 -3 -0 2 1 -0 -2 -1 -0 1 2 3 2 1 1 2 3 5 5 4 3 2 1 0
-4 -4 -4 -4 -4 -4 -3 -3 -3 -2 -2 -2 -1 -1 -1 -2 -3 -4 -5 -5 -5 -5 -4 -3 -2 -1 -1 -1 -1 -2 -2 -3 -3 -4 -5 -6 -3 -0 0 -1 -3 -3 -1 3 6 4 -0 -2 -0 -0 -0 -0 2 3 4 4 2 1 1 2 4 6 6 6 4 3 2 1 0
-4 -4 -4 -4 -3 -3 -3 -3 -3 -3 -2 -1 -0 -1 -2 -3 -4 -4 -5 -5 -5 -5 -4 -3 -1 -1 -0 -0 -1 -1 -2 -2 -2 -4 -6 -8 -5 -1 2 2 1 3 10 21 26 20 10 1 -0 -0 -0 1 4 5 5 4 2 1 2 5 6 7 7 6 5 3 2 1 1
-3 -3 -3 -2 -2 -3 -3 -4 -3 -3 -2 -1 -1 -1 -2 -4 -4 -4 -5 -5 -5 -5 -4 -3 -1 -0 -0 -0 -0 -1 -1 -2 -2 -4 -5 -8 -5 -1 4 8 7 8 11 17 20 18 13 7 4 1 0 1 3 5 6 6 4 3 3 6 7 8 8 7 5 4 2 1 2
-3 -2 -2 -1 -2 -3 -3 -3 -3 -3 -2 -2 -1 -2 -2 -3 -4 -4 -4 -5 -5 -5 -4 -2 -1 -1 -0 -0 -0 -0 -1 -1 -2 -3 -4 -6 -6 -4 1 4 4 2 2 2 4 7 9 8 6 4 1 1 2 4 6 7 6 4 3 5 6 7 7 6 4 2 1 1 2
-2 -1 -1 -1 -2 -3 -3 -4 -4 -4 -3 -2 -1 -1 -2 -3 -4 -4 -4 -4 -4 -4 -4 -3 -1 -1 -0 -0 -0 -0 -1 -1 -2 -3 -3 -4 -6 -7 -7 -5 -6 -5 -4 -4 -3 -1 2 4 6 5 3 1 2 4 5 6 5 3 1 2 4 5 4 2 0 -0 0 1 2
-1 -1 -1 -2 -2 -2 -3 -4 -4 -4 -3 -3 -2 -2 -2 -2 -2 -2 -3 -5 -5 -5 -4 -3 -2 -1 -0 0 0 -0 -0 -0 -1 -2 -3 -2 -4 -6 -8 -8 -9 -8 -5 -3 -4 -3 -2 1 4 5 4 2 1 2 2 3 2 0 -0 1 2 2 2 1 1 1 1 1 1
-1 -1 -1 -1 -2 -3 -3 -4 -4 -4 -4 -3 -3 -2 -1 -0 -1 -3 -4 -6 -5 -5 -4 -3 -3 -2 -1 0 0 0 0 -0 -0 -1 -1 -2 -2 -4 -6 -8 -8 -8 -7 -5 -4 -3 -2 -0 2 3 3 1 -0 -1 -0 1 2 1 -0 -0 1 3 4 4 4 4 3 3 2
-1 -1 -1 -1 -2 -3 -3 -3 -4 -4 -5 -4 -3 -1 -1 -1 -2 -3 -4 -4 -4 -4 -4 -4 -3 -2 -1 -0 0 0 0 0 0 0 -0 -1 -2 -3 -4 -6 -6 -6 -6 -6 -5 -3 -1 1 1 1 1 -0 -2 -2 -1 2 3 4 3 1 1 2 4 5 5 5 4 3 2
0 -0 -1 -2 -2 -2 -2 -3 -4 -4 -4 -4 -3 -2 -0 -0 -1 -2 -3 -4 -4 -5 -5 -4 -2 -1 -0 -0 0 0 1 1 1 1 1 0 -1 -2 -3 -4 -5 -5 -4 -6 -4 -3 -0 2 2 2 -0 -3 -5 -6 -4 0 2 3 3 2 1 1 2 3 3 3 2 1 1
0 0 -0 -1 -1 -2 -2 -2 -3 -3 -3 -4 -3 -1 -0 1 -0 -2 -3 -4 -4 -4 -4 -3 -3 -2 -1 0 0 0 0 1 1 1 1 1 0 -1 -2 -3 -5 -5 -4 -4 -3 -2 0 3 4 3 1 -4 -8 -10 -8 -4 -1 -0 0 1 -0 -1 -2 -2 -1 -1 -1 -1 -1
0 0 -0 -0 -1 -1 -2 -2 -2 -2 -2 -3 -2 -1 -0 0 -0 -1 -3 -4 -4 -5 -4 -4 -2 -1 -1 -0 -0 -0 -0 0 1 1 2 2 2 1 -0 -2 -4 -4 -4 -2 -2 -1 0 3 4 4 2 -2 -6 -8 -9 -7 -5 -4 -4 -4 -5 -5 -6 -5 -5 -4 -4 -4 -4
0 -0 -0 -1 -1 -1 -1 -2 -1 -1 -1 -1 -1 -1 -0 1 1 0 -1 -2 -4 -5 -5 -4 -3 -2 -1 -1 -0 -0 -0 -0 0 1 1 2 2 2 2 0 -1 -3 -3 -2 -2 -1 -0 2 4 4 2 0 -3 -6 -8 -7 -5 -4 -4 -4 -6 -6 -5 -5 -4 -4 -4 -3 -3
-0 -1 -1 -1 -1 -1 -1 -2 -1 -1 -1 -0 0 -0 -0 -0 0 1 0 -1 -3 -4 -4 -3 -3 -2 -1 -0 -0 -0 -0 -0 -0 -0 0 1 2 2 3 2 1 -0 -2 -3 -4 -3 -1 1 4 4 4 2 -1 -5 -7 -6 -4 -2 -1 -1 -2 -2 -2 -1 -1 -1 -0 0 1
-1 -1 -1 -1 -2 -2 -1 -1 -2 -1 -1 -0 0 -0 -0 -1 -0 -0 -0 -1 -2 -2 -2 -2 -2 -1 -0 -0 -0 0 -0 -0 -1 -1 -0 -0 1 1 2 2 2 1 0 -1 -4 -4 -3 -0 2 4 5 4 2 -1 -4 -6 -4 -3 -1 -0 -0 -0 -0 -0 -0 1 1 2 3
-1 -2 -2 -2 -2 -2 -2 -2 -2 -1 -1 -0 0 0 0 -0 -1 -1 -2 -2 -2 -1 -1 -1 -1 -0 -0 -0 -0 -0 -0 -0 -0 -1 -1 -1 -0 0 1 1 1 1 1 1 -1 -3 -3 -1 -0 2 3 4 3 1 -1 -4 -5 -5 -3 -1 -0 0 0 -0 -0 -0 0 1 1
-3 -3 -3 -3 -2 -2 -2 -2 -2 -2 -1 -1 -0 -0 -0 -1 -2 -3 -3 -4 -2 -1 -0 -0 0 0 0 -1 -1 -1 -1 -0 -0 -0 -1 -1 -1 -1 -0 -0 0 0 -0 0 -0 -1 -2 -2 -2 -1 0 1 1 1 -0 -2 -4 -5 -5 -3 -1 -0 1 1 1 0 -0 -1 -1
-3 -4 -3 -3 -2 -1 -1 -2 -2 -2 -2 -1 -1 -1 -0 -0 -1 -3 -4 -5 -3 -1 -0 1 1 1 0 -1 -1 -1 -1 -1 -0 -0 -0 -0 -1 -1 -1 -1 -1 -1 -1 -1 -1 -1 -2 -2 -2 -2 -1 -1 -0 -0 -0 -0 -2 -4 -5 -4 -3 -2 -0 0 1 1 -0 -1 -2
-4 -4 -4 -3 -2 -1 -1 -1 -1 -2 -2 -2 -1 -1 -0 -0 -1 -3 -4 -4 -3 -1 -0 1 0 0 -0 -0 -0 -0 -1 -1 -1 -0 -0 -0 -0 -1 -1 -1 -1 -1 -1 -2 -2 -2 -2 -2 -2 -1 -1 -1 -1 -1 -0 -0 -1 -3 -4 -4 -3 -2 -2 -1 -0 0 0 -1 -1
Height
5508 5503 5500 5496 5492 5489 5485 5481 5478 5474 5471 5467 5464 5460 5456 5453 5449 5446 5442 5438 5434 5431 5427 5423 5420 5416 5412 5408 5405 5401 5397 5394 5391 5387 5384 5381 5379 5376 5375 5373 5371 5370 5368 5367 5367 5366 5366 5366 5366 5366 5366 5366 5367 5368 5369 5370 5371 5372 5373 5373 5373 5373 5373 5374 5374 5375 5376 5377 5377
5505 5501 5497 5493 5490 5486 5482 5478 5475 5471 5467 5464 5460 5456 5453 5449 5445 5441 5438 5434 5430 5426 5422 5418 5414 5410 5406 5402 5398 5394 5390 5386 5382 5379 5376 5373 5371 5368 5366 5365 5363 5362 5361 5360 5359 5359 5359 5359 5359 5359 5360 5361 5361 5363 5364 5365 5367 5368 5369 5369 5369 5369 5369 5370 5371 5371 5372 5373 5374
5503 5499 5495 5491 5487 5483 5479 5476 5472 5468 5464 5460 5456 5453 5449 5445 5441 5437 5433 5429 5425 5421 5416 5412 5408 5404 5400 5395 5391 5386 5381 5377 5374 5370 5367 5364 5361 5359 5357 5356 5354 5353 5352 5351 5351 5351 5351 5351 5352 5353 5353 5354 5356 5357 5359 5360 5362 5363 5364 5364 5364 5365 5366 5366 5367 5367 5368 5369 5370
5501 5497 5492 5488 5484 5480 5476 5472 5469 5465 5461 5457 5453 5449 5446 5441 5437 5433 5429 5425 5420 5416 5411 5406 5401 5397 5392 5387 5382 5377 5372 5368 5364 5360 5357 5354 5351 5349 5347 5346 5345 5344 5343 5343 5343 5343 5343 5344 5345 5346 5346 5348 5350 5351 5353 5355 5357 5359 5359 5360 5360 5361 5361 5362 5363 5364 5365 5366 5366
5499 5495 5490 5486 5482 5477 5473 5470 5466 5461 5457 5454 5450 5446 5441 5437 5433 5429 5424 5420 5415 5410 5405 5400 5395 5390 5385 5380 5374 5368 5363 5358 5354 5349 5346 5343 5340 5338 5336 5335 5334 5334 5334 5334 5334 5334 5335 5336 5337 5338 5340 5341 5343 5345 5347 5350 5352 5354 5354 5355 5356 5356 5357 5358 5359 5360 5361 5362 5362
5497 5492 5488 5483 5479 5475 5471 5466 5462 5458 5454 5450 5446 5442 5437 5433 5429 5424 5419 5415 5410 5405 5400 5394 5389 5383 5377 5371 5365 5359 5354 5348 5343 5339 5335 5331 5328 5326 5325 5324 5323 5323 5323 5324 5324 5325 5326 5327 5329 5330 5332 5335 5337 5339 5341 5344 5347 5349 5350 5350 5351 5352 5353 5355 5356 5357 5358 5358 5359
5495 5490 5486 5481 5476 5472 5467 5463 5459 5455 5451 5446 5442 5438 5434 5429 5425 5420 5415 5410 5405 5400 5395 5389 5383 5376 5370 5363 5356 5350 5344 5338 5333 5328 5324 5320 5317 5315 5313 5312 5312 5312 5312 5313 5315 5316 5317 5319 5321 5323 5325 5328 5330 5333 5336 5339 5341 5343 5345 5346 5347 5348 5350 5351 5352 5353 5354 5355 5355
5493 5488 5483 5478 5474 5469 5465 5460 5456 5452 5447 5443 5439 5435 5430 5426 5421 5416 5411 5406 5401 5395 5390 5383 5377 5370 5363 5355 5348 5341 5334 5328 5323 5318 5314 5311 5308 5306 5304 5303 5302 5302 5303 5304 5305 5307 5309 5311 5313 5316 5318 5321 5324 5326 5330 5333 5336 5338 5340 5341 5342 5344 5346 5347 5348 5349 5350 5351 5352
5491 5486 5481 5476 5471 5466 5462 5458 5453 5449 5445 5440 5436 5431 5427 5422 5418 5413 5407 5402 5396 5391 5385 5378 5371 5363 5355 5347 5339 5332 5326 5320 5315 5310 5306 5303 5300 5297 5296 5294 5294 5294 5294 5295 5297 5299 5301 5303 5306 5309 5311 5315 5317 5321 5324 5327 5330 5332 5335 5336 5338 5340 5341 5343 5345 5346 5347 5348 5349
5489 5484 5479 5474 5469 5464 5460 5455 5451 5446 5442 5438 5433 5429 5424 5419 5415 5409 5404 5398 5392 5386 5380 5372 5364 5356 5348 5339 5331 5324 5318 5312 5307 5303 5299 5296 5293 5291 5289 5288 5287 5286 5287 5288 5289 5291 5294 5296 5300 5302 5306 5309 5312 5315 5318 5322 5325 5327 5330 5332 5334 5336 5337 5339 5341 5342 5343 5344 5345
5487 5482 5476 5472 5467 5462 5458 5453 5449 5444 5440 5436 5431 5426 5421 5416 5411 5406 5400 5395 5388 5382 5374 5366 5358 5349 5340 5332 5324 5317 5311 5306 5301 5297 5293 5290 5287 5285 5283 5282 5281 5281 5281 5282 5283 5285 5288 5291 5294 5297 5300 5303 5306 5310 5313 5316 5320 5323 5326 5328 5330 5332 5333 5335 5337 5339 5340 5341 5342
5485 5480 5475 5470 5466 5461 5456 5451 5447 5442 5438 5433 5429 5424 5419 5414 5408 5403 5397 5391 5384 5377 5370 5361 5351 5342 5333 5326 5318 5312 5306 5301 5296 5292 5288 5285 5282 5280 5278 5277 5276 5276 5276 5277 5278 5281 5283 5286 5290 5293 5296 5298 5301 5304 5308 5311 5315 5319 5321 5324 5326 5327 5330 5332 5334 5336 5337 5338 5339
5483 5478 5473 5469 5464 5459 5455 5450 5445 5441 5436 5431 5426 5421 5416 5411 5406 5400 5394 5387 5380 5373 5364 5355 5345 5336 5327 5320 5313 5307 5301 5296 5291 5287 5284 5281 5278 5276 5274 5273 5272 5272 5272 5273 5275 5277 5280 5283 5286 5289 5291 5293 5296 5300 5303 5307 5311 5315 5317 5319 5321 5324 5326 5329 5331 5333 5334 5335 5336
5482 5477 5472 5467 5462 5458 5453 5448 5443 5438 5433 5429 5424 5419 5414 5408 5403 5397 5391 5384 5376 5368 5359 5350 5340 5331 5323 5316 5310 5303 5298 5293 5288 5284 5281 5277 5275 5273 5271 5270 5270 5270 5270 5271 5272 5275 5278 5281 5284 5286 5288 5290 5292 5296 5300 5304 5308 5311 5313 5316 5318 5321 5323 5326 5328 5330 5331 5332 5333
5481 5476 5471 5466 5461 5456 5451 5446 5441 5436 5431 5426 5421 5416 5411 5406 5400 5394 5387 5381 5372 5364 5354 5345 5336 5327 5320 5313 5307 5301 5296 5291 5287 5283 5279 5276 5273 5271 5270 5268 5268 5268 5268 5270 5271 5274 5277 5280 5283 5284 5286 5287 5289 5293 5297 5301 5304 5307 5310 5312 5315 5318 5321 5323 5325 5326 5327 5328 5330
5480 5475 5470 5465 5460 5455 5450 5444 5439 5434 5429 5424 5419 5414 5409 5403 5397 5391 5385 5377 5369 5360 5350 5341 5332 5325 5318 5312 5306 5301 5296 5291 5287 5283 5280 5276 5274 5271 5269 5268 5268 5268 5268 5270 5272 5275 5278 5281 5283 5284 5285 5285 5287 5290 5294 5298 5301 5304 5307 5310 5313 5316 5318 5320 5321 5323 5324 5325 5327
5479 5474 5469 5463 5458 5453 5448 5443 5437 5432 5427 5422 5417 5412 5407 5401 5395 5389 5381 5374 5366 5357 5347 5338 5330 5323 5317 5311 5306 5301 5297 5293 5289 5285 5281 5278 5275 5273 5271 5269 5269 5269 5270 5271 5274 5276 5280 5283 5284 5285 5285 5285 5286 5289 5292 5296 5299 5302 5305 5308 5311 5313 5315 5317 5318 5320 5321 5322 5324
5478 5473 5467 5462 5457 5452 5446 5441 5436 5431 5425 5420 5415 5410 5405 5399 5393 5386 5379 5371 5363 5354 5345 5336 5329 5322 5316 5311 5306 5302 5299 5295 5291 5287 5284 5280 5277 5275 5273 5272 5271 5271 5272 5274 5277 5280 5283 5285 5286 5286 5286 5286 5286 5288 5291 5295 5298 5301 5303 5306 5308 5310 5312 5314 5316 5317 5318 5320 5322
5477 5471 5466 5461 5456 5451 5445 5440 5434 5429 5424 5419 5414 5408 5403 5397 5391 5384 5377 5369 5361 5352 5343 5335 5328 5321 5316 5312 5308 5304 5301 5297 5293 5290 5286 5283 5280 5278 5276 5275 5274 5275 5276 5278 5281 5283 5285 5286 5287 5287 5287 5287 5287 5289 5292 5295 5297 5299 5302 5304 5306 5308 5310 5311 5313 5314 5316 5318 5320
5476 5471 5465 5460 5455 5449 5444 5438 5433 5428 5423 5417 5412 5407 5401 5396 5390 5383 5376 5368 5359 5351 5342 5334 5327 5322 5317 5313 5309 5306 5302 5299 5296 5292 5289 5286 5284 5282 5281 5279 5279 5279 5281 5283 5285 5286 5287 5288 5289 5289 5289 5289 5289 5291 5292 5295 5296 5299 5301 5303 5305 5306 5308 5310 5311 5313 5315 5317 5318
5475 5470 5464 5459 5453 5448 5442 5437 5432 5427 5421 5416 5411 5406 5401 5395 5388 5381 5374 5366 5358 5350 5341 5334 5328 5323 5318 5315 5311 5308 5304 5301 5298 5294 5291 5290 5288 5287 5285 5284 5283 5284 5285 5287 5288 5289 5290 5291 5291 5291 5291 5291 5291 5292 5294 5295 5297 5298 5300 5301 5303 5305 5307 5309 5311 5312 5313 5314 5316
5474 5469 5463 5458 5452 5446 5441 5436 5431 5426 5421 5416 5411 5406 5400 5394 5387 5381 5373 5366 5357 5349 5341 5334 5328 5324 5320 5316 5313 5310 5306 5303 5300 5297 5295 5293 5292 5291 5289 5288 5288 5289 5290 5291 5291 5292 5293 5293 5293 5293 5293 5293 5293 5294 5295 5296 5297 5298 5300 5301 5303 5305 5307 5308 5309 5310 5311 5312 5314
5473 5468 5462 5457 5451 5446 5440 5435 5430 5425 5421 5416 5410 5405 5399 5393 5387 5380 5373 5365 5357 5349 5341 5335 5329 5325 5321 5318 5315 5311 5309 5306 5303 5300 5298 5296 5295 5294 5293 5293 5293 5293 5294 5295 5296 5296 5296 5296 5296 5295 5295 5295 5295 5296 5296 5297 5297 5299 5300 5301 5303 5305 5306 5307 5307 5308 5310 5311 5312
5472 5467 5461 5456 5451 5445 5440 5435 5430 5425 5420 5415 5410 5405 5399 5393 5386 5380 5372 5365 5357 5349 5342 5336 5331 5326 5323 5319 5316 5314 5311 5309 5306 5303 5301 5299 5298 5298 5298 5297 5297 5297 5298 5300 5301 5301 5299 5298 5297 5297 5297 5296 5296 5297 5297 5298 5299 5300 5301 5302 5303 5304 5305 5306 5306 5307 5308 5310 5311
5471 5466 5461 5456 5450 5445 5440 5435 5430 5425 5420 5415 5410 5405 5399 5393 5386 5380 5372 5365 5357 5350 5343 5337 5332 5328 5324 5321 5318 5316 5313 5311 5309 5307 5305 5302 5302 5302 5302 5301 5301 5300 5301 5303 5306 5305 5303 5301 5300 5299 5298 5298 5298 5298 5299 5300 5300 5300 5301 5302 5303 5304 5305 5305 5306 5306 5307 5308 5310
5471 5466 5461 5456 5450 5445 5440 5435 5430 5425 5420 5415 5410 5405 5399 5393 5386 5380 5373 5366 5358 5351 5344 5338 5333 5329 5326 5323 5320 5318 5316 5314 5312 5310 5308 5306 5305 5305 5305 5304 5303 5302 5302 5303 5303 5304 5305 5303 5301 5301 5300 5300 5300 5300 5300 5301 5301 5301 5301 5302 5303 5304 5305 5305 5306 5306 5306 5307 5309
5471 5466 5461 5456 5450 5445 5440 5435 5430 5425 5420 5415 5410 5405 5399 5393 5386 5380 5373 5366 5359 5352 5346 5340 5335 5331 5328 5325 5322 5320 5318 5316 5315 5313 5311 5308 5307 5306 5306 5305 5304 5304 5303 5302 5302 5303 5303 5303 5303 5302 5302 5301 5301 5301 5301 5302 5302 5302 5302 5303 5304 5304 5305 5305 5306 5306 5306 5307 5307
5471 5466 5461 5456 5451 5445 5440 5435 5430 5425 5420 5415 5410 5405 5399 5393 5387 5381 5374 5368 5361 5354 5347 5341 5337 5332 5329 5326 5324 5322 5320 5318 5316 5315 5313 5311 5309 5307 5306 5305 5305 5305 5304 5303 5303 5304 5304 5304 5304 5304 5303 5303 5302 5302 5302 5302 5303 5303 5303 5303 5304 5304 5304 5305 5306 5306 5306 5306 5307
5471 5466 5461 5456 5451 5446 5440 5435 5430 5425 5420 5416 5411 5405 5400 5394 5388 5382 5376 5369 5362 5356 5350 5344 5338 5334 5330 5327 5325 5323 5321 5320 5318 5316 5315 5313 5311 5309 5307 5306 5306 5306 5306 5304 5304 5305 5305 5304 5304 5304 5304 5303 5303 5302 5302 5303 5303 5303 5303 5303 5304 5304 5304 5305 5306 5306 5306 5306 5307
5472 5467 5461 5456 5451 5446 5441 5436 5431 5426 5421 5416 5411 5406 5401 5395 5389 5383 5377 5371 5364 5358 5351 5345 5340 5335 5332 5329 5326 5324 5322 5321 5319 5318 5316 5314 5313 5311 5309 5307 5307 5308 5308 5306 5306 5306 5305 5305 5305 5305 5304 5304 5303 5303 5303 5303 5304 5304 5304 5304 5304 5305 5305 5305 5305 5306 5306 5306 5306
5472 5467 5462 5457 5451 5446 5441 5436 5431 5426 5421 5416 5411 5406 5401 5396 5390 5384 5378 5372 5366 5360 5353 5347 5342 5337 5333 5330 5328 5326 5324 5322 5321 5319 5317 5316 5314 5312 5311 5309 5309 5310 5310 5307 5307 5306 5306 5306 5306 5305 5305 5304 5304 5304 5304 5304 5305 5305 5305 5305 5305 5305 5305 5305 5305 5305 5306 5306 5306
5473 5468 5462 5457 5452 5447 5442 5437 5431 5426 5422 5417 5412 5407 5402 5397 5392 5386 5380 5374 5368 5362 5356 5350 5344 5339 5335 5331 5329 5326 5325 5323 5321 5320 5319 5317 5316 5314 5312 5311 5309 5311 5311 5309 5308 5307 5307 5306 5306 5306 5305 5304 5304 5304 5304 5305 5305 5305 5305 5305 5304 5304 5304 5304 5304 5305 5305 5305 5306
5473 5468 5463 5458 5453 5448 5443 5438 5433 5428 5423 5418 5413 5409 5404 5399 5393 5387 5381 5376 5370 5365 5359 5353 5347 5342 5337 5334 5330 5328 5326 5324 5322 5321 5320 5318 5316 5315 5313 5312 5310 5311 5312 5311 5309 5308 5308 5307 5307 5306 5305 5304 5304 5304 5304 5305 5305 5305 5305 5304 5304 5304 5304 5304 5304 5304 5304 5305 5305
5474 5469 5464 5459 5454 5449 5444 5439 5434 5429 5424 5420 5415 5410 5405 5400 5395 5389 5384 5378 5372 5366 5361 5355 5350 5345 5340 5336 5332 5329 5326 5325 5323 5321 5320 5319 5317 5316 5315 5313 5311 5311 5312 5314 5310 5309 5309 5308 5307 5306 5305 5304 5303 5303 5304 5305 5305 5305 5304 5304 5304 5303 5303 5303 5303 5303 5304 5305 5305
5475 5470 5465 5460 5455 5450 5445 5440 5436 5431 5426 5421 5416 5412 5407 5402 5397 5391 5386 5380 5375 5369 5363 5357 5352 5346 5342 5337 5334 5331 5328 5326 5324 5322 5321 5320 5318 5317 5316 5314 5313 5311 5313 5316 5311 5309 5309 5309 5308 5307 5306 5305 5304 5303 5304 5304 5305 5305 5305 5304 5304 5304 5304 5304 5304 5304 5304 5305 5305
5475 5471 5466 5461 5456 5451 5446 5442 5437 5432 5428 5423 5418 5414 5409 5404 5399 5394 5388 5383 5377 5371 5366 5360 5355 5350 5345 5340 5336 5332 5329 5326 5324 5322 5321 5320 5319 5318 5316 5315 5314 5312 5313 5315 5312 5310 5309 5309 5309 5308 5307 5306 5304 5303 5303 5304 5304 5305 5305 5305 5305 5304 5304 5304 5305 5305 5305 5305 5306
5476 5471 5466 5462 5457 5452 5448 5443 5438 5434 5429 5425 5420 5416 5411 5406 5401 5396 5391 5386 5380 5375 5369 5364 5358 5353 5348 5344 5339 5335 5331 5328 5326 5323 5321 5320 5319 5318 5317 5316 5314 5313 5312 5313 5312 5311 5310 5309 5309 5309 5308 5306 5305 5304 5303 5303 5303 5304 5304 5305 5305 5305 5304 5304 5304 5304 5305 5305 5305
5476 5472 5467 5463 5458 5454 5449 5444 5440 5435 5431 5426 5422 5417 5413 5408 5403 5398 5393 5388 5383 5378 5372 5367 5362 5357 5352 5347 5342 5337 5333 5330 5327 5324 5322 5321 5319 5318 5317 5316 5315 5313 5312 5312 5311 5311 5310 5310 5309 5309 5308 5307 5306 5305 5304 5303 5302 5303 5303 5304 5304 5304 5304 5304 5304 5304 5304 5304 5304
5477 5472 5468 5463 5459 5455 5450 5446 5441 5436 5432 5428 5423 5419 5414 5409 5405 5400 5395 5390 5385 5380 5375 5370 5365 5360 5355 5350 5345 5340 5336 5332 5329 5326 5323 5321 5320 5318 5317 5316 5315 5313 5312 5312 5311 5311 5311 5310 5309 5308 5308 5307 5306 5306 5305 5304 5303 5302 5302 5302 5303 5303 5303 5303 5303 5303 5303 5303 5303
5477 5473 5468 5464 5460 5456 5451 5447 5442 5438 5433 5429 5425 5420 5416 5411 5406 5401 5396 5391 5387 5382 5378 5373 5369 5364 5359 5353 5348 5343 5339 5335 5331 5328 5325 5322 5321 5319 5317 5316 5315 5313 5312 5311 5311 5311 5310 5310 5309 5308 5308 5307 5306 5306 5305 5304 5303 5302 5302 5302 5302 5302 5302 5302 5302 5302 5302 5302 5302
5478 5473 5469 5465 5461 5457 5452 5448 5443 5439 5435 5430 5426 5422 5418 5413 5408 5403 5398 5394 5389 5385 5381 5376 5372 5367 5362 5357 5352 5347 5342 5338 5334 5330 5327 5324 5322 5320 5318 5316 5315 5314 5312 5311 5311 5310 5309 5309 5309 5309 5308 5307 5306 5306 5305 5304 5304 5303 5302 5302 5302 5301 5301 5301 5301 5301 5301 5301 5301